AEROCUBE 6A

Last updated on Sun Dec 14 2025 00:03:49 GMT+0000 (Coordinated Universal Time)

1 40045U 14033AM 25346.91641873 .00010672 00000+0 95863-3 0 9992 2 40045 97.7036 151.3945 0039784 279.5109 80.1617 14.95270828618755
UTC large
Height (km)
Speed (km/s)
/
Latitude / Longitude
Inclination (degrees)
Orbital Period (minutes)
Azimuth
Elevation
Range (km)
Doppler Factor

Next 0 passes for location: London (51.5072 / 0.1276)

Sorry there are no passes over London.